Thomson, GA

10:39 PM EDT on September 19, 2017 (GMT -0400)
Thomson-McDuffie County

Weather History for KHQU - March, 2013

Change the Weather History Date:

Tuesday, March 5, 2013

  Actual Average (KDNL) Record (KDNL)
Temperature  
Mean Temperature 51 °F -  
Max Temperature 68 °F 61 °F 82 °F (1997)
Min Temperature 34 °F 42 °F 28 °F (2002)
Degree Days  
Heating Degree Days 14    
Growing Degree Days 1 (Base 50)    
Moisture  
Dew Point 46 °F    
Average Humidity 76    
Maximum Humidity 100    
Minimum Humidity 60    
Precipitation  
Precipitation 0.00 in - - ()
Sea Level Pressure  
Sea Level Pressure 29.96 in    
Wind  
Wind Speed 6 mph (SSW)    
Max Wind Speed 21 mph    
Max Gust Speed 33 mph    
Visibility 10 miles    
Events      
Averages and records for this station are not official NWS values.
T = Trace of Precipitation, MM = Missing Value Source: NWS Daily Summary

Daily Weather History Graph

Daily Weather History Graph

Search for Another Location

Airport or City:

Trip Planner

Search our weather history database for the weather conditions in past years. The results will help you decide how hot, cold, wet, or windy it might be!

Date:

Astronomy

Mar. 05, 2013 Rise Set
Actual Time 6:53 AM EST 6:30 PM EST
Civil Twilight 6:28 AM EST 6:55 PM EST
Nautical Twilight 5:59 AM EST 7:23 PM EST
Astronomical Twilight 5:30 AM EST 7:52 PM EST
Moon 1:51 AM EST (3/5) 12:20 PM EST (3/5)
Length of Visible Light 12h 26m
Length of Day
11h 37m
Last Quarter, 41% of the Moon is Illuminated
Mar 5
Last Quarter
Mar 11
New
Mar 19
First Quarter
Mar 27
Full
Apr 3
Last Quarter

Hourly Weather History & Observations

Time (EST) Temp. Windchill Dew Point Humidity Pressure Visibility Wind Dir Wind Speed Gust Speed Precip Events Conditions
12:15 AM 39.6 °F - 33.8 °F 80% 30.12 in 10.0 mi Calm Calm - N/A   Clear
12:35 AM 40.1 °F - 34.5 °F 80% 30.12 in 10.0 mi Calm Calm - N/A   Clear
12:55 AM 38.3 °F - 34.0 °F 84% 30.12 in 10.0 mi Calm Calm - N/A   Clear
1:35 AM 37.4 °F - 33.8 °F 87% 30.13 in 10.0 mi Calm Calm - N/A   Clear
1:55 AM 36.5 °F - 34.0 °F 91% 30.13 in 10.0 mi Calm Calm - N/A   Clear
2:15 AM 36.5 °F - 33.8 °F 90% 30.13 in 10.0 mi Calm Calm - N/A   Clear
2:35 AM 36.0 °F - 33.4 °F 91% 30.13 in 10.0 mi Calm Calm - N/A   Clear
2:55 AM 34.2 °F - 33.1 °F 96% 30.13 in 10.0 mi Calm Calm - N/A   Clear
3:15 AM 35.6 °F - 33.8 °F 93% 30.13 in 10.0 mi Calm Calm - N/A   Clear
4:15 AM 37.8 °F 35.3 °F 36.5 °F 95% 30.10 in 10.0 mi SSE 3.5 mph - N/A   Clear
4:35 AM 39.6 °F 37.4 °F 36.5 °F 89% 30.09 in 10.0 mi South 3.5 mph - N/A   Scattered Clouds
4:55 AM 41.4 °F 38.4 °F 36.0 °F 81% 30.09 in 10.0 mi South 4.6 mph - N/A   Mostly Cloudy
5:15 AM 45.0 °F 42.6 °F 35.8 °F 70% 30.08 in 10.0 mi South 4.6 mph - N/A   Mostly Cloudy
5:35 AM 45.5 °F 43.2 °F 36.0 °F 69% 30.09 in 10.0 mi South 4.6 mph - N/A   Overcast
5:55 AM 45.5 °F 43.2 °F 36.5 °F 71% 30.09 in 10.0 mi South 4.6 mph - N/A   Overcast
6:15 AM 45.5 °F 43.2 °F 36.5 °F 71% 30.09 in 10.0 mi South 4.6 mph - N/A   Overcast
6:35 AM 45.5 °F 43.2 °F 37.0 °F 72% 30.09 in 10.0 mi South 4.6 mph - N/A   Mostly Cloudy
7:15 AM 46.4 °F 44.3 °F 37.9 °F 72% 30.09 in 10.0 mi South 4.6 mph - N/A   Overcast
7:55 AM 47.5 °F - 38.7 °F 71% 30.08 in 10.0 mi South 5.8 mph - N/A   Overcast
8:15 AM 47.8 °F - 39.4 °F 72% 30.08 in 10.0 mi South 5.8 mph - N/A   Overcast
8:35 AM 48.2 °F - 39.7 °F 73% 30.08 in 10.0 mi SSW 8.1 mph - N/A   Overcast
8:55 AM 48.7 °F - 40.3 °F 73% 30.08 in 10.0 mi SSW 6.9 mph - N/A   Overcast
9:15 AM 49.3 °F - 40.5 °F 72% 30.08 in 10.0 mi South 6.9 mph - N/A   Overcast
9:35 AM 50.4 °F - 41.0 °F 70% 30.07 in 10.0 mi SSW 6.9 mph - N/A   Overcast
9:55 AM 51.3 °F - 41.9 °F 70% 30.06 in 10.0 mi South 5.8 mph - N/A   Overcast
10:15 AM 52.5 °F - 42.8 °F 70% 30.05 in 10.0 mi SSW 9.2 mph 16.1 mph N/A   Overcast
10:35 AM 55.2 °F - 44.8 °F 68% 30.04 in 10.0 mi SSW 11.5 mph 16.1 mph N/A   Overcast
10:55 AM 57.0 °F - 46.4 °F 68% 30.03 in 10.0 mi SSW 11.5 mph 16.1 mph N/A   Overcast
11:15 AM 58.6 °F - 48.0 °F 68% 30.03 in 10.0 mi SSW 11.5 mph 19.6 mph N/A   Overcast
11:35 AM 62.6 °F - 50.0 °F 63% 30.01 in 10.0 mi SSW 11.5 mph 20.7 mph N/A   Overcast
11:55 AM 64.6 °F - 51.8 °F 63% 29.99 in 10.0 mi SSW 13.8 mph 21.9 mph N/A   Scattered Clouds
12:15 PM 65.1 °F - 53.1 °F 65% 29.98 in 10.0 mi SW 10.4 mph 26.5 mph N/A   Scattered Clouds
12:35 PM 67.3 °F - 53.8 °F 62% 29.97 in 10.0 mi SSW 19.6 mph 28.8 mph N/A   Mostly Cloudy
12:55 PM 68.4 °F - 53.8 °F 60% 29.95 in 10.0 mi SSW 15.0 mph 25.3 mph N/A   Mostly Cloudy
1:15 PM 68.4 °F - 54.3 °F 61% 29.94 in 10.0 mi SSW 8.1 mph 23.0 mph N/A   Mostly Cloudy
1:55 PM 67.1 °F - 54.9 °F 65% 29.92 in 10.0 mi SSW 19.6 mph 28.8 mph N/A   Mostly Cloudy
2:15 PM 65.5 °F - 55.2 °F 69% 29.91 in 10.0 mi SSW 13.8 mph 25.3 mph N/A   Overcast
2:35 PM 65.3 °F - 55.4 °F 70% 29.90 in 10.0 mi South 15.0 mph 26.5 mph N/A   Overcast
2:55 PM 65.3 °F - 55.4 °F 70% 29.89 in 10.0 mi SSW 12.7 mph 26.5 mph N/A   Scattered Clouds
3:15 PM 65.1 °F - 55.6 °F 71% 29.88 in 10.0 mi South 12.7 mph 25.3 mph N/A   Scattered Clouds
3:35 PM 65.5 °F - 55.4 °F 70% 29.86 in 10.0 mi SW 17.3 mph 24.2 mph N/A   Mostly Cloudy
3:55 PM 64.6 °F - 55.6 °F 73% 29.86 in 10.0 mi SSW 16.1 mph 24.2 mph N/A   Mostly Cloudy
4:15 PM 64.6 °F - 55.6 °F 73% 29.85 in 10.0 mi South 6.9 mph 17.3 mph N/A   Mostly Cloudy
4:35 PM 63.9 °F - 55.6 °F 74% 29.83 in 10.0 mi South 8.1 mph 18.4 mph N/A   Overcast
4:55 PM 63.9 °F - 55.6 °F 74% 29.82 in 10.0 mi South 8.1 mph - N/A   Overcast
5:15 PM 64.2 °F - 55.8 °F 74% 29.79 in 10.0 mi South 6.9 mph 17.3 mph N/A   Overcast
5:35 PM 64.0 °F - 55.8 °F 74% 29.78 in 10.0 mi South 9.2 mph 16.1 mph N/A   Mostly Cloudy
5:55 PM 63.5 °F - 56.3 °F 77% 29.77 in 10.0 mi South 8.1 mph - N/A   Mostly Cloudy
6:15 PM 63.0 °F - 56.5 °F 79% 29.75 in 10.0 mi South 9.2 mph - N/A   Overcast
6:35 PM 62.6 °F - 57.2 °F 82% 29.72 in 10.0 mi SSE 6.9 mph 18.4 mph N/A   Overcast
6:55 PM 61.5 °F - 58.3 °F 89% 29.75 in 5.0 mi SSW 10.4 mph 18.4 mph N/A   Overcast
7:15 PM 59.4 °F - 59.4 °F 100% 29.79 in 7.0 mi WSW 11.5 mph 19.6 mph N/A   Overcast
7:35 PM 59.4 °F - 59.2 °F 99% 29.78 in 10.0 mi WSW 10.4 mph 16.1 mph N/A   Overcast
7:55 PM 59.4 °F - 57.2 °F 93% 29.77 in 10.0 mi WSW 12.7 mph 20.7 mph N/A   Scattered Clouds
8:15 PM 58.6 °F - 56.8 °F 94% 29.78 in 10.0 mi WSW 6.9 mph 16.1 mph N/A   Scattered Clouds
8:35 PM 57.9 °F - 56.3 °F 94% 29.78 in 10.0 mi WSW 10.4 mph 16.1 mph N/A   Scattered Clouds
8:55 PM 57.9 °F - 55.4 °F 91% 29.80 in 10.0 mi West 15.0 mph 24.2 mph N/A   Mostly Cloudy
9:15 PM 55.4 °F - 50.2 °F 83% 29.82 in 10.0 mi WNW 15.0 mph 29.9 mph N/A   Scattered Clouds
9:35 PM 52.3 °F - 42.8 °F 70% 29.84 in 10.0 mi West 18.4 mph 31.1 mph N/A   Clear
9:55 PM 50.9 °F - 40.1 °F 67% 29.85 in 10.0 mi West 19.6 mph 31.1 mph N/A   Clear
10:15 PM 49.5 °F - 40.1 °F 70% 29.86 in 10.0 mi West 19.6 mph 31.1 mph N/A   Clear
10:35 PM 48.4 °F - 39.7 °F 72% 29.86 in 10.0 mi West 13.8 mph 21.9 mph N/A   Clear
10:55 PM 47.1 °F - 39.7 °F 76% 29.87 in 10.0 mi West 11.5 mph 21.9 mph N/A   Scattered Clouds
11:15 PM 46.4 °F 38.7 °F 36.5 °F 68% 29.87 in 10.0 mi West 20.7 mph 33.4 mph N/A   Scattered Clouds
11:35 PM 45.0 °F 36.9 °F 34.2 °F 66% 29.88 in 10.0 mi West 20.7 mph 31.1 mph N/A   Scattered Clouds
11:55 PM 43.9 °F 35.9 °F 33.3 °F 66% 29.88 in 10.0 mi WNW 18.4 mph 29.9 mph N/A   Mostly Cloudy